User: anonymous   Login
Location: Plymouth
(43.7570°N, 71.6890°W)
Time: 01:47:05
(UTC-04:00)
Language:

Meteor 1-28 Rocket - Orbit

View from above orbital plane
View from above orbital plane
View from above satellite
View from above satellite

Ground track
Ground track

The orbit data is extracted from the following two-line orbital elements,

1 10114U 77057B   15146.56289329  .00001041  00000-0  58533-4 0  9998
2 10114 097.2312 355.5893 0016201 070.0154 290.2822 15.15247431 69517
Epoch (UTC): 26 May 2015 13:30:33
Eccentricity: 0.0016201
inclination: 97.2312°
perigee height: 509 km
apogee height: 531 km
right ascension of ascending node: 355.5893°
argument of perigee: 70.0154°
revolutions per day: 15.15247431
mean anomaly at epoch: 290.2822°
orbit number at epoch: 6951

The dashed part of the orbit path shows where the satellite is in the earth's shadow,  

DLR